Weather History for Wolf Point, MT

Change the Weather History Date:

Monday, November 5, 2012

  Actual Average Record
Temperature  
Mean Temperature 49 °F -  
Max Temperature 65 °F 47 °F 66 °F (2001)
Min Temperature 32 °F 20 °F -9 °F (2003)
Degree Days  
Heating Degree Days 16    
Cooling Degree Days 0    
Moisture  
Dew Point 34 °F    
Average Humidity 85    
Maximum Humidity 100    
Minimum Humidity 47    
Precipitation  
Precipitation T in 0.02 in 0.17 in (2008)
Month to date precipitation 0.19 0.10  
Year to date precipitation 10.06 11.59  
Sea Level Pressure  
Sea Level Pressure 30.07 in    
Wind  
Wind Speed 6 mph (East)    
Max Wind Speed 29 mph    
Max Gust Speed 39 mph    
Visibility 6 miles    
Events Fog , Rain    
T = Trace of Precipitation, MM = Missing Value Source: NWS Daily Summary

Daily Weather History Graph

Daily Weather History Graph

Search for Another Location

Airport:

Trip Planner

Search our weather history database for the weather conditions in past years. The results will help you decide how hot, cold, wet, or windy it might be!

Date:

Astronomy

Nov. 05, 2012 Rise Set
Actual Time 6:54 AM MST 4:36 PM MST
Civil Twilight 6:21 AM MST 5:09 PM MST
Nautical Twilight 5:44 AM MST 5:46 PM MST
Astronomical Twilight 5:08 AM MST 6:22 PM MST
Moon 10:17 PM MST (11/5) 12:16 PM MST (11/5)
Length of Visible Light 10h 48m
Length of Day
9h 42m
Waning Gibbous, 62% of the Moon is Illuminated
Nov 5
Waning Gibbous
Nov 6
Last Quarter
Nov 13
New
Nov 20
First Quarter
Nov 28
Full

Hourly Weather History & Observations

Time (MST) Temp. Windchill Dew Point Humidity Pressure Visibility Wind Dir Wind Speed Gust Speed Precip Events Conditions
12:53 AM 35.1 °F 32.2 °F 34.0 °F 96% 30.24 in 6.0 mi SE 3.5 mph - N/A   Overcast
1:03 AM 35.6 °F - 33.8 °F 93% 30.18 in 5.0 mi Calm Calm - N/A   Overcast
1:40 AM 33.8 °F 30.8 °F 33.8 °F 100% 30.17 in 1.8 mi SE 3.5 mph - N/A   Overcast
1:53 AM 34.0 °F 31.0 °F 34.0 °F 100% 30.22 in 1.0 mi ESE 3.5 mph - N/A   Overcast
2:02 AM 33.8 °F 29.6 °F 33.8 °F 100% 30.17 in 1.8 mi SE 4.6 mph - N/A   Overcast
2:10 AM 33.8 °F 28.6 °F 33.8 °F 100% 30.16 in 2.5 mi SE 5.8 mph - N/A   Overcast
2:24 AM 33.8 °F 30.8 °F 33.8 °F 100% 30.15 in 1.2 mi SSE 3.5 mph - N/A   Overcast
2:36 AM 33.8 °F - 33.8 °F 100% 30.15 in 2.5 mi Calm Calm - N/A   Overcast
2:53 AM 33.1 °F 30.0 °F 33.1 °F 100% 30.20 in 5.0 mi SE 3.5 mph - N/A   Overcast
3:10 AM 33.8 °F 28.6 °F 33.8 °F 100% 30.13 in 1.8 mi ESE 5.8 mph - N/A   Overcast
3:15 AM 33.8 °F 28.6 °F 33.8 °F 100% 30.12 in 0.8 mi ESE 5.8 mph - N/A   Overcast
3:25 AM 33.8 °F 27.7 °F 33.8 °F 100% 30.10 in 1.2 mi ESE 6.9 mph - N/A   Overcast
3:48 AM 33.8 °F 27.7 °F 33.8 °F 100% 30.09 in 0.8 mi East 6.9 mph - N/A   Overcast
3:53 AM 34.0 °F 28.0 °F 33.1 °F 96% 30.14 in 0.5 mi East 6.9 mph - N/A Fog Fog
4:06 AM 33.8 °F 27.7 °F 33.8 °F 100% 30.08 in 1.2 mi East 6.9 mph - N/A   Overcast
4:27 AM 33.8 °F 28.6 °F 33.8 °F 100% 30.06 in 2.5 mi East 5.8 mph - N/A   Overcast
4:36 AM 33.8 °F 27.7 °F 33.8 °F 100% 30.06 in 1.8 mi East 6.9 mph - N/A   Overcast
4:39 AM 33.8 °F 27.7 °F 33.8 °F 100% 30.06 in 3.0 mi East 6.9 mph - N/A   Mostly Cloudy
4:53 AM 33.1 °F 27.7 °F 32.0 °F 96% 30.11 in 7.0 mi East 5.8 mph - N/A   Scattered Clouds
5:53 AM 32.0 °F 25.6 °F 30.9 °F 96% 30.07 in 10.0 mi ENE 6.9 mph - N/A   Clear
6:53 AM 33.1 °F 27.7 °F 32.0 °F 96% 30.04 in 10.0 mi ENE 5.8 mph - N/A   Clear
7:53 AM 35.1 °F 30.1 °F 33.1 °F 92% 30.01 in 10.0 mi ENE 5.8 mph - N/A   Partly Cloudy
8:53 AM 37.0 °F 34.5 °F 34.0 °F 89% 29.97 in 10.0 mi NE 3.5 mph - N/A   Clear
9:53 AM 42.1 °F - 37.0 °F 82% 29.94 in 10.0 mi Calm Calm - N/A   Scattered Clouds
10:53 AM 48.9 °F - 39.9 °F 71% 29.89 in 10.0 mi West 10.4 mph - N/A   Clear
11:53 AM 55.0 °F - 43.0 °F 64% 29.84 in 10.0 mi WSW 6.9 mph - N/A   Clear
12:53 PM 63.0 °F - 43.0 °F 48% 29.81 in 10.0 mi WSW 16.1 mph - N/A   Clear
1:53 PM 64.9 °F - 44.1 °F 47% 29.81 in 10.0 mi WNW 10.4 mph 18.4 mph 0.00 in Rain Light Rain
2:53 PM 53.1 °F - 39.0 °F 59% 29.91 in 10.0 mi NNW 28.8 mph 39.1 mph 0.00 in   Mostly Cloudy
3:53 PM 46.9 °F - 36.0 °F 66% 29.99 in 10.0 mi NNW 17.3 mph 24.2 mph N/A   Scattered Clouds
4:53 PM 46.9 °F - 32.0 °F 56% 30.03 in 10.0 mi NNW 20.7 mph 27.6 mph N/A   Clear
5:53 PM 43.0 °F 36.8 °F 32.0 °F 65% 30.06 in 10.0 mi NNW 11.5 mph - N/A   Clear
6:53 PM 44.1 °F 37.4 °F 32.0 °F 63% 30.10 in 10.0 mi WNW 13.8 mph - N/A   Mostly Cloudy
7:53 PM 45.0 °F 38.9 °F 32.0 °F 60% 30.11 in 10.0 mi West 12.7 mph - N/A   Overcast
8:53 PM 43.0 °F 36.8 °F 32.0 °F 65% 30.12 in 10.0 mi West 11.5 mph - N/A   Overcast
9:53 PM 41.0 °F 33.9 °F 30.9 °F 67% 30.13 in 10.0 mi West 12.7 mph - N/A   Overcast
10:53 PM 37.0 °F 30.4 °F 30.0 °F 76% 30.14 in 10.0 mi West 9.2 mph - N/A   Clear
11:53 PM 36.0 °F 28.5 °F 30.0 °F 79% 30.15 in 10.0 mi West 10.4 mph - N/A   Partly Cloudy